Lid_Strength_Index
3 3 2 2 2 2 2 2 2 2 1 1 1 1 1 1 1 2 6 4 3 -2 -2 3 3 3 4 7 7 8 13 14 12 10 11 9 9 7 5 6 5 4 5 4 4
3 3 3 3 3 2 3 2 2 2 1 1 1 1 1 1 3 5 0 -1 -1 -3 4 4 4 4 8 8 8 10 13 12 9 9 10 8 8 7 6 6 5 5 3 2 3
3 3 3 3 3 3 3 3 2 2 2 1 1 1 1 2 5 5 -2 -2 -1 -2 3 3 3 5 8 8 9 10 12 10 8 7 8 8 8 7 6 7 6 6 4 3 3
3 3 3 3 3 3 3 3 3 2 2 2 2 2 1 3 10 5 -3 -3 -3 0 3 4 5 8 9 9 7 11 8 8 8 7 8 8 7 6 6 6 4 4 3 3 4
3 3 3 3 3 3 3 3 3 3 2 2 2 1 4 6 6 1 -4 -3 0 3 4 5 7 8 10 8 8 9 8 8 7 7 8 6 7 7 6 4 4 3 3 4 4
3 3 3 3 3 3 3 3 3 3 3 2 2 2 3 7 3 2 0 2 2 4 4 5 6 6 8 8 9 8 7 7 8 8 7 8 7 6 6 4 4 4 4 4 4
3 3 3 3 3 3 3 3 3 3 2 1 1 2 4 5 3 2 2 4 4 3 5 4 4 6 6 7 7 7 10 8 8 7 8 7 8 7 5 4 5 4 4 4 3
3 3 3 3 3 3 3 3 3 2 1 0 1 3 5 2 3 3 3 3 3 3 4 3 4 6 7 6 7 10 11 13 9 7 7 8 11 7 5 5 5 5 4 4 4
3 4 4 3 3 3 3 3 2 1 0 1 3 4 6 2 4 3 4 4 3 3 4 3 6 6 6 10 11 11 14 12 10 8 8 8 10 6 5 5 6 6 5 4 4
3 4 4 3 3 4 4 3 2 2 1 1 2 5 4 5 3 3 3 3 3 4 5 5 7 9 9 11 14 13 12 11 11 9 8 10 10 7 6 6 6 6 5 5 4
4 4 4 4 4 4 4 3 5 6 4 6 6 4 3 3 2 4 3 4 4 5 8 6 10 12 11 10 10 10 11 11 9 8 9 10 10 8 7 7 7 7 6 5 5
4 4 4 4 4 4 5 5 3 5 7 3 3 3 2 3 5 3 3 6 6 8 7 9 11 8 8 7 9 8 10 12 9 7 10 10 9 8 8 7 7 6 6 5 5
4 4 4 4 4 4 4 2 2 4 8 5 4 4 5 4 5 4 4 6 7 8 9 11 9 6 7 8 9 10 10 10 11 10 10 10 11 10 8 6 6 5 5 5 5
4 4 4 5 4 4 4 2 3 2 10 7 6 5 5 5 6 3 3 5 7 9 9 10 7 8 8 8 8 12 8 9 9 11 14 10 16 11 9 10 8 7 6 6 5
4 4 4 5 6 5 3 3 3 3 18 6 7 4 5 6 5 5 3 5 8 8 9 10 8 9 9 8 8 10 8 10 9 12 12 12 14 13 10 11 10 8 7 6 6
4 4 5 4 4 3 1 1 3 11 16 8 6 7 7 5 5 5 4 5 6 8 8 9 7 8 8 7 8 8 9 11 11 13 16 12 13 15 13 11 10 8 6 5 6
5 5 6 5 6 3 3 4 11 15 7 9 9 8 8 7 7 6 7 8 10 12 11 9 10 8 7 10 9 9 12 17 18 17 18 11 13 14 10 8 8 7 7 7 6
6 6 5 4 3 3 4 8 15 10 9 6 6 8 9 7 7 7 8 10 7 9 12 13 13 10 8 10 11 11 12 17 20 20 17 11 16 13 8 6 6 6 7 6 6
7 6 5 3 2 2 6 13 12 9 7 7 7 9 9 7 8 8 9 9 8 8 12 12 11 8 8 8 9 10 13 10 15 15 16 14 12 9 8 8 7 7 6 7 6
9 7 6 3 1 3 8 11 9 6 6 7 10 8 10 9 9 10 9 7 7 7 8 9 13 8 8 9 8 10 8 14 15 20 22 15 15 15 11 10 8 8 7 7 6
8 8 3 1 1 6 11 10 7 5 5 7 9 9 9 9 9 10 9 8 6 7 8 10 11 10 9 10 12 11 12 12 13 15 20 21 16 10 10 9 10 8 7 7 7
8 10 3 3 8 8 10 8 7 6 5 6 6 7 9 9 9 9 9 8 5 6 10 9 11 14 11 8 8 9 12 11 17 16 16 17 17 8 9 8 8 8 6 6 8
9 7 4 3 11 10 7 7 6 7 7 7 7 7 7 9 11 8 8 6 6 7 9 9 12 15 13 11 9 10 9 11 10 12 15 19 16 7 7 8 7 8 7 7 7
8 9 5 5 5 8 9 9 9 5 6 6 7 6 8 9 9 9 8 6 6 6 5 7 11 13 17 14 11 11 10 9 11 15 15 15 13 11 9 9 8 7 7 7 6
6 8 7 10 10 9 8 8 9 10 7 7 8 7 8 11 10 10 8 7 7 6 7 9 13 11 10 9 9 10 10 10 11 11 14 12 12 11 10 9 8 7 6 6 5
6 7 7 9 8 9 9 9 9 9 8 9 10 8 7 10 9 10 9 9 9 8 9 9 13 11 12 9 9 10 9 9 9 9 9 9 11 8 7 6 7 6 6 6 6
4 4 6 7 9 10 9 8 8 7 7 6 7 8 9 8 7 7 7 7 7 9 10 10 11 13 15 10 11 14 10 9 9 9 9 12 10 7 8 7 8 7 6 6 6